This demonstration page uses our WeatherBlox Daily Observations layout. Learn more.

41.55636, -103.73856

Hourly Observations for December 8, 2015

Temp ( °F °C ) Dew Point ( °F °C ) Humidity (%) Winds ( mph kmh ) Pressure ( in mb ) Visibility ( mi km ) Precip ( " mm )
12:14 am 00:14 Mostly Clear 55 13 27 -3 33 33 W 31 50 29.65 1004 8 12.874752 0 0
12:53 am 00:53 Clear 54 12 28 -2 38 38 W 15 24 29.68 1005 10 16.09344 0 0
1:53 am 01:53 Clear 52 11 30 -1 44 44 W 24 39 29.71 1006 10 16.09344 0 0
2:53 am 02:53 Clear 50 10 30 -1 47 47 W 22 35 29.71 1006 10 16.09344 0 0
3:53 am 03:53 Clear 48 9 30 -1 50 50 WNW 18 30 29.77 1008 10 16.09344 0 0
4:53 am 04:53 Mostly Clear 48 9 30 -1 50 50 WNW 13 20 29.8 1009 10 16.09344 0 0
5:53 am 05:53 Clear 50 10 32 0 50 50 WNW 18 30 29.74 1007 10 16.09344 0 0
6:53 am 06:53 Clear 50 10 32 0 50 50 WNW 16 26 29.8 1009 10 16.09344 0 0
7:53 am 07:53 Cloudy 50 10 34 1 54 54 WNW 15 24 29.83 1010 10 16.09344 0 0
8:53 am 08:53 Sunny 52 11 34 1 50 50 WNW 17 28 29.83 1010 10 16.09344 0 0
9:53 am 09:53 Sunny 55 13 32 0 41 41 WNW 20 31 29.85 1011 10 16.09344 0 0
10:53 am 10:53 Sunny 57 14 30 -1 36 36 WNW 21 33 29.83 1010 10 16.09344 0 0
11:53 am 11:53 Sunny 57 14 28 -2 33 33 WNW 21 33 29.83 1010 10 16.09344 0 0
12:53 pm 12:53 Mostly Cloudy 61 16 28 -2 29 29 WNW 17 28 29.8 1009 10 16.09344 0 0
1:53 pm 13:53 Sunny 61 16 28 -2 29 29 NW 15 24 29.8 1009 10 16.09344 0 0
2:53 pm 14:53 Sunny 59 15 27 -3 29 29 NW 14 22 29.83 1010 10 16.09344 0 0
3:53 pm 15:53 Sunny 55 13 30 -1 38 38 W 15 24 29.85 1011 10 16.09344 0 0
4:53 pm 16:53 Clear 52 11 30 -1 44 44 WNW 15 24 29.88 1012 10 16.09344 0 0
5:53 pm 17:53 Clear 48 9 30 -1 50 50 WNW 12 19 29.91 1013 10 16.09344 0 0
6:53 pm 18:53 Clear 46 8 30 -1 53 53 WNW 10 17 29.91 1013 10 16.09344 0 0
7:53 pm 19:53 Clear 45 7 30 -1 57 57 NW 7 11 29.94 1014 10 16.09344 0 0
8:53 pm 20:53 Clear 39 4 30 -1 70 70 NW 5 7 29.97 1015 10 16.09344 0 0
9:53 pm 21:53 Clear 43 6 30 -1 61 61 WNW 9 15 29.94 1014 10 16.09344 0 0
10:53 pm 22:53 Clear 37 3 30 -1 75 75 NW 8 13 30 1016 10 16.09344 0 0
11:53 pm 23:53 Clear 39 4 30 -1 70 70 NW 7 11 29.97 1015 10 16.09344 0 0

Powered by AerisWeather